Weather History for Naples, FL

Change the Weather History Date:

Friday, January 4, 2013

  Actual Average Record
Temperature  
Mean Temperature 74 °F 65 °F  
Max Temperature 82 °F 75 °F 86 °F (1971)
Min Temperature 66 °F 54 °F 36 °F (2012)
Degree Days  
Heating Degree Days 0 3  
Month to date heating degree days 0 12  
Since 1 July heating degree days 49 90  
Cooling Degree Days 9 3  
Month to date cooling degree days 27 12  
Year to date cooling degree days 27 12  
Growing Degree Days 24 (Base 50)    
Moisture  
Dew Point 68 °F    
Average Humidity 83    
Maximum Humidity 100    
Minimum Humidity 65    
Precipitation  
Precipitation 0.11 in 0.06 in 0.57 in (1959)
Month to date precipitation 0.11 0.21  
Year to date precipitation 0.11 0.21  
Snow  
Snow 0.00 in - - ()
Month to date snowfall 0.0  
Since 1 July snowfall 0.0  
Snow Depth 0.00 in    
Sea Level Pressure  
Sea Level Pressure 30.17 in    
Wind  
Wind Speed 5 mph (NE)    
Max Wind Speed 12 mph    
Max Gust Speed 20 mph    
Visibility 6 miles    
Events Rain    
T = Trace of Precipitation, MM = Missing Value Source: NWS Daily Summary

Daily Weather History Graph

Daily Weather History Graph

Search for Another Location

Airport:

Trip Planner

Search our weather history database for the weather conditions in past years. The results will help you decide how hot, cold, wet, or windy it might be!

Date:

Astronomy

Jan. 04, 2013 Rise Set
Actual Time 7:15 AM EST 5:49 PM EST
Civil Twilight 6:50 AM EST 6:14 PM EST
Nautical Twilight 6:21 AM EST 6:42 PM EST
Astronomical Twilight 5:53 AM EST 7:11 PM EST
Moon No Moon Rise 11:41 AM EST (1/4)
Length of Visible Light 11h 24m
Length of Day
10h 33m
Waning Gibbous, 55% of the Moon is Illuminated
Jan 4
Waning Gibbous
Jan 4
Last Quarter
Jan 11
New
Jan 18
First Quarter
Jan 26
Full

Hourly Weather History & Observations

Time (EST) Temp. Heat Index Dew Point Humidity Pressure Visibility Wind Dir Wind Speed Gust Speed Precip Events Conditions
12:53 AM 70.0 °F - 70.0 °F 100% 30.11 in 9.0 mi SE 4.6 mph - N/A   Overcast
1:53 AM 70.0 °F - 70.0 °F 100% 30.11 in 9.0 mi SE 3.5 mph - N/A   Overcast
2:53 AM 69.1 °F - 69.1 °F 100% 30.11 in 8.0 mi Calm Calm - N/A   Clear
3:20 AM 68.0 °F - 68.0 °F 100% 30.12 in 7.0 mi West 3.5 mph - N/A   Scattered Clouds
3:29 AM 68.0 °F - 68.0 °F 100% 30.11 in 7.0 mi West 3.5 mph - N/A   Mostly Cloudy
3:53 AM 69.1 °F - 69.1 °F 100% 30.11 in 6.0 mi Calm Calm - N/A   Mostly Cloudy
4:09 AM 68.0 °F - 68.0 °F 100% 30.12 in 4.0 mi Calm Calm - N/A   Scattered Clouds
4:36 AM 66.2 °F - 66.2 °F 100% 30.12 in 1.8 mi Calm Calm - N/A   Partly Cloudy
4:53 AM 66.9 °F - 66.9 °F 100% 30.12 in 1.5 mi East 3.5 mph - N/A   Mostly Cloudy
4:58 AM 66.2 °F - 66.2 °F 100% 30.12 in 4.0 mi ENE 4.6 mph - N/A   Mostly Cloudy
5:53 AM 69.1 °F - 69.1 °F 100% 30.13 in 4.0 mi ENE 4.6 mph - N/A   Overcast
6:53 AM 69.1 °F - 69.1 °F 100% 30.14 in 3.0 mi East 6.9 mph - N/A   Overcast
7:02 AM 69.8 °F - 69.8 °F 100% 30.15 in 1.0 mi East 5.8 mph - N/A   Overcast
7:53 AM 70.0 °F - 70.0 °F 100% 30.17 in 1.5 mi Calm Calm - N/A   Overcast
8:19 AM 69.8 °F - 69.8 °F 100% 30.18 in 2.0 mi Calm Calm - 0.10 in Rain Light Rain
8:53 AM 70.0 °F - 70.0 °F 100% 30.20 in 2.5 mi Calm Calm - 0.10 in Rain Light Rain
9:07 AM 69.8 °F - 69.8 °F 100% 30.21 in 2.5 mi North 3.5 mph - 0.01 in Rain Light Rain
9:23 AM 71.6 °F - 71.6 °F 100% 30.21 in 4.0 mi NNE 3.5 mph - 0.01 in   Mostly Cloudy
9:53 AM 71.1 °F - 71.1 °F 100% 30.21 in 8.0 mi NE 5.8 mph - 0.01 in   Overcast
10:53 AM 71.1 °F - 70.0 °F 96% 30.21 in 6.0 mi NNE 6.9 mph - N/A   Overcast
11:18 AM 73.4 °F - 71.6 °F 94% 30.20 in 7.0 mi East 6.9 mph - N/A   Mostly Cloudy
11:53 AM 75.0 °F - 71.1 °F 87% 30.19 in 8.0 mi East 6.9 mph - N/A   Clear
12:30 PM 78.8 °F - 71.6 °F 78% 30.17 in 9.0 mi ENE 5.8 mph - N/A   Mostly Cloudy
12:53 PM 80.1 °F 83.2 °F 70.0 °F 71% 30.16 in 10.0 mi Calm Calm - N/A   Mostly Cloudy
1:53 PM 82.0 °F 85.9 °F 70.0 °F 67% 30.14 in 10.0 mi SW 8.1 mph - N/A   Scattered Clouds
2:53 PM 78.1 °F - 70.0 °F 76% 30.13 in 7.0 mi West 9.2 mph - N/A   Scattered Clouds
3:53 PM 77.0 °F - 69.1 °F 76% 30.14 in 6.0 mi NW 8.1 mph - N/A   Haze
4:53 PM 75.9 °F - 69.1 °F 79% 30.14 in 5.0 mi WNW 4.6 mph - N/A   Haze
5:53 PM 73.0 °F - 69.1 °F 87% 30.16 in 6.0 mi NW 4.6 mph - N/A   Clear
6:40 PM 71.6 °F - 68.0 °F 88% 30.19 in 10.0 mi North 9.2 mph - N/A   Mostly Cloudy
6:53 PM 71.1 °F - 68.0 °F 90% 30.19 in 10.0 mi NNE 6.9 mph - N/A   Overcast
8:38 PM 69.8 °F - 66.2 °F 88% 30.23 in 10.0 mi North 6.9 mph - N/A   Overcast
8:53 PM 69.1 °F - 66.0 °F 90% 30.23 in 10.0 mi NNE 6.9 mph - N/A   Overcast
9:04 PM 69.8 °F - 66.2 °F 88% 30.24 in 10.0 mi NNE 9.2 mph - N/A   Overcast
9:41 PM 68.0 °F - 66.2 °F 94% 30.24 in 7.0 mi NNE 9.2 mph - N/A   Overcast
9:51 PM 68.0 °F - 64.4 °F 88% 30.24 in 8.0 mi NE 9.2 mph - N/A   Overcast
9:53 PM 68.0 °F - 64.9 °F 90% 30.23 in 8.0 mi NNE 6.9 mph - N/A   Overcast
10:53 PM 68.0 °F - 66.0 °F 93% 30.23 in 8.0 mi NE 9.2 mph - N/A   Overcast
11:03 PM 68.0 °F - 64.4 °F 88% 30.23 in 8.0 mi NE 9.2 mph - N/A   Overcast
11:53 PM 66.0 °F - 64.9 °F 96% 30.22 in 10.0 mi ENE 6.9 mph - N/A   Scattered Clouds